FW7499 Weather Reports


Display with metric or nautical units.
time (UTC)temp
F
wind
direction
speed
MPH
gust
MPH
rain 1hr
in
rain 24hr
in
rain mn
in
humidity
%
barometer
mb
20260506185003 60 309 3.0 9.0 0.00 0.00 0.00 36 1018.3
20260506184512 59 332 3.0 7.0 0.00 0.00 0.00 36 1018.4
20260506184005 59 238 3.0 11.0 0.00 0.00 0.00 35 1018.5
20260506183508 58 329 3.0 11.0 0.00 0.00 0.00 36 1018.5
20260506183005 59 315 3.0 10.0 0.00 0.00 0.00 36 1018.5
20260506182503 58 330 3.0 10.0 0.00 0.00 0.00 37 1018.6
20260506182005 59 323 4.0 11.0 0.00 0.00 0.00 40 1018.6
20260506181504 57 119 2.0 11.0 0.00 0.00 0.00 35 1018.5
20260506181004 59 321 5.0 11.0 0.00 0.00 0.00 38 1018.5
20260506180504 58 320 3.0 11.0 0.00 0.00 0.00 41 1018.9
20260506180005 57 306 4.0 9.0 0.00 0.00 0.00 38 1018.8
20260506175506 56 318 3.0 8.0 0.00 0.00 0.00 42 1018.9
20260506175005 55 5 3.0 10.0 0.00 0.00 0.00 37 1018.9
20260506174517 55 349 2.0 10.0 0.00 0.00 0.00 38 1018.9
20260506174002 56 332 4.0 9.0 0.00 0.00 0.00 39 1019.0
20260506173505 56 347 2.0 9.0 0.00 0.00 0.00 39 1019.1
20260506173015 56 323 4.0 11.0 0.00 0.00 0.00 43 1019.2
20260506172504 54 312 3.0 11.0 0.00 0.00 0.00 40 1019.3
20260506172003 57 330 3.0 11.0 0.00 0.00 0.00 42 1019.4
20260506171511 56 326 0.0 8.0 0.00 0.00 0.00 39 1019.4
20260506171003 54 238 2.0 7.0 0.00 0.00 0.00 37 1019.4
20260506170505 54 227 1.0 9.0 0.00 0.00 0.00 42 1019.6
20260506170007 53 140 3.0 9.0 0.00 0.00 0.00 37 1019.6
20260506165504 55 305 2.0 7.0 0.00 0.00 0.00 37 1019.5
20260506165005 56 309 1.0 8.0 0.00 0.00 0.00 38 1019.5
20260506164506 53 169 2.0 12.0 0.00 0.00 0.00 37 1019.6
20260506164009 55 317 5.0 12.0 0.00 0.00 0.00 37 1019.7
20260506163512 56 350 3.0 12.0 0.00 0.00 0.00 38 1019.7
20260506163008 55 330 2.0 13.0 0.00 0.00 0.00 42 1019.7
20260506162507 53 330 2.0 13.0 0.00 0.00 0.00 38 1019.7
20260506162013 54 261 1.0 7.0 0.00 0.00 0.00 37 1019.7
20260506161511 53 331 4.0 7.0 0.00 0.00 0.00 42 1019.7
20260506161003 53 311 3.0 7.0 0.00 0.00 0.00 39 1019.7
20260506160506 55 311 2.0 7.0 0.00 0.00 0.00 45 1019.6
20260506160006 54 5 2.0 8.0 0.00 0.00 0.00 43 1019.6
20260506155503 53 310 3.0 8.0 0.00 0.00 0.00 43 1019.5
20260506155004 54 344 3.0 11.0 0.00 0.00 0.00 41 1019.5
20260506154510 53 215 2.0 11.0 0.00 0.00 0.00 44 1019.5
20260506154004 53 351 3.0 11.0 0.00 0.00 0.00 43 1019.5
20260506153505 52 306 3.0 7.0 0.00 0.00 0.00 43 1019.5
20260506153013 52 311 3.0 6.0 0.00 0.00 0.00 43 1019.6
20260506152505 52 328 2.0 7.0 0.00 0.00 0.00 41 1019.5
20260506152005 52 303 3.0 7.0 0.00 0.00 0.00 45 1019.5
20260506151517 53 336 2.0 5.0 0.00 0.00 0.00 42 1019.6
20260506151009 53 334 1.0 4.0 0.00 0.00 0.00 46 1019.6
20260506150507 52 339 2.0 5.0 0.00 0.00 0.00 45 1019.6
20260506150007 52 355 1.0 8.0 0.00 0.00 0.00 44 1019.6
20260506145505 52 297 3.0 8.0 0.00 0.00 0.00 45 1019.6
20260506145010 52 321 2.0 7.0 0.00 0.00 0.00 47 1019.6
20260506144506 51 316 2.0 7.0 0.00 0.00 0.00 49 1019.6
20260506144006 51 348 1.0 5.0 0.00 0.00 0.00 46 1019.5
20260506143504 51 320 1.0 5.0 0.00 0.00 0.00 47 1019.6
20260506143012 51 303 1.0 3.0 0.00 0.00 0.00 51 1019.5
20260506142505 50 346 0.0 3.0 0.00 0.00 0.00 54 1019.5
20260506142005 49 346 0.0 3.0 0.00 0.00 0.00 51 1019.5
20260506141511 49 350 1.0 3.0 0.00 0.00 0.00 48 1019.5
20260506141006 49 347 1.0 4.0 0.00 0.00 0.00 51 1019.4
20260506140507 48 334 2.0 4.0 0.00 0.00 0.00 49 1019.4
20260506140022 47 242 0.0 3.0 0.00 0.00 0.00 52 1019.3
20260506135507 47 340 1.0 7.0 0.00 0.00 0.00 53 1019.3
20260506135006 47 331 2.0 7.0 0.00 0.00 0.00 52 1019.3
20260506134514 46 343 2.0 4.0 0.00 0.00 0.00 54 1019.2
20260506134010 46 309 1.0 5.0 0.00 0.00 0.00 56 1019.2
20260506133507 45 305 3.0 5.0 0.00 0.00 0.00 55 1019.1
20260506133018 45 309 2.0 5.0 0.00 0.00 0.00 54 1019.2
20260506132509 45 346 2.0 5.0 0.00 0.00 0.00 56 1019.1
20260506132007 45 348 1.0 5.0 0.00 0.00 0.00 56 1019.0
20260506131517 44 346 1.0 4.0 0.00 0.00 0.00 58 1018.9
20260506131006 43 322 2.0 4.0 0.00 0.00 0.00 59 1018.8
20260506130509 44 327 2.0 4.0 0.00 0.00 0.00 59 1018.8
20260506130020 44 298 2.0 3.0 0.00 0.00 0.00 60 1018.8
20260506125505 43 345 1.0 3.0 0.00 0.00 0.00 62 1018.8
20260506125007 43 344 1.0 3.0 0.00 0.00 0.00 64 1018.8
20260506124519 42 344 0.0 3.0 0.00 0.00 0.00 64 1018.8
20260506124010 42 344 0.0 4.0 0.00 0.00 0.00 63 1018.6
20260506123507 42 346 1.0 4.0 0.00 0.00 0.00 63 1018.5
20260506123015 41 341 1.0 3.0 0.00 0.00 0.00 65 1018.5
20260506122507 41 341 1.0 3.0 0.00 0.00 0.00 66 1018.4
20260506122006 40 341 0.0 2.0 0.00 0.00 0.00 68 1018.3
20260506121510 39 341 0.0 2.0 0.00 0.00 0.00 69 1018.3
20260506121004 38 341 0.0 2.0 0.00 0.00 0.00 71 1018.2
20260506120507 37 341 0.0 2.0 0.00 0.00 0.00 72 1018.1
20260506120028 37 341 0.0 1.0 0.00 0.00 0.00 72 1018.0
20260506115506 37 341 0.0 0.0 0.00 0.00 0.00 70 1017.9
20260506115006 37 341 0.0 0.0 0.00 0.00 0.00 70 1017.9
20260506114521 37 341 0.0 0.0 0.00 0.00 0.00 70 1017.8
20260506114007 37 341 0.0 0.0 0.00 0.00 0.00 70 1017.8
20260506113508 37 341 0.0 0.0 0.00 0.00 0.00 70 1017.7
20260506113024 37 341 0.0 0.0 0.00 0.00 0.00 70 1017.6
20260506112509 37 341 0.0 0.0 0.00 0.00 0.00 69 1017.6
20260506112007 37 341 0.0 0.0 0.00 0.00 0.00 70 1017.6
20260506111526 37 341 0.0 0.0 0.00 0.00 0.00 70 1017.6
20260506111007 37 341 0.0 0.0 0.00 0.00 0.00 69 1017.6
20260506110509 37 341 0.0 0.0 0.00 0.00 0.00 68 1017.5
20260506110022 38 341 0.0 0.0 0.00 0.00 0.00 66 1017.6
20260506105511 38 341 0.0 0.0 0.00 0.00 0.00 66 1017.7
20260506105007 38 341 0.0 0.0 0.00 0.00 0.00 66 1017.6
20260506104518 38 341 0.0 0.0 0.00 0.00 0.00 66 1017.6
20260506104007 38 341 0.0 0.0 0.00 0.00 0.00 67 1017.6
20260506103510 38 341 0.0 0.0 0.00 0.00 0.00 67 1017.5
20260506103018 38 341 0.0 0.0 0.00 0.00 0.00 66 1017.4
20260506102508 39 341 0.0 0.0 0.00 0.00 0.00 65 1017.4
20260506102011 39 341 0.0 0.0 0.00 0.00 0.00 65 1017.3
20260506101508 39 341 0.0 0.0 0.00 0.00 0.00 66 1017.3
20260506101005 39 341 0.0 0.0 0.00 0.00 0.00 65 1017.2
20260506100503 39 341 0.0 0.0 0.00 0.00 0.00 64 1017.2
20260506100023 40 341 0.0 0.0 0.00 0.00 0.00 63 1017.2
20260506095503 40 341 0.0 0.0 0.00 0.00 0.00 63 1017.2
20260506095004 40 341 0.0 1.0 0.00 0.00 0.00 64 1017.1
20260506094508 40 341 0.0 1.0 0.00 0.00 0.00 64 1017.1
20260506094006 40 341 0.0 1.0 0.00 0.00 0.00 62 1017.1
20260506093507 41 341 0.0 1.0 0.00 0.00 0.00 62 1017.1
20260506093005 41 341 0.0 1.0 0.00 0.00 0.00 61 1017.1
20260506092506 41 341 0.0 1.0 0.00 0.00 0.00 61 1017.0
20260506092006 42 341 0.0 1.0 0.00 0.00 0.00 61 1016.9
20260506091506 42 341 0.0 1.0 0.00 0.00 0.00 61 1016.9
20260506091004 42 341 0.0 0.0 0.00 0.00 0.00 60 1016.8
20260506090502 42 341 0.0 1.0 0.00 0.00 0.00 60 1016.8
20260506090007 42 341 0.0 1.0 0.00 0.00 0.00 59 1016.7
20260506085503 42 341 0.0 1.0 0.00 0.00 0.00 59 1016.7
20260506085004 43 341 0.0 1.0 0.00 0.00 0.00 58 1016.7
20260506084513 43 341 0.0 1.0 0.00 0.00 0.00 59 1016.6
20260506084003 43 341 0.0 1.0 0.00 0.00 0.00 58 1016.5
20260506083504 43 341 0.0 2.0 0.00 0.00 0.00 57 1016.5
20260506083018 43 341 0.0 2.0 0.00 0.00 0.00 56 1016.4
20260506082505 44 341 0.0 2.0 0.00 0.00 0.00 56 1016.4
20260506082003 44 341 0.0 2.0 0.00 0.00 0.00 56 1016.4
20260506081510 44 341 0.0 2.0 0.00 0.00 0.00 55 1016.3
20260506081006 44 341 0.0 2.0 0.00 0.00 0.00 55 1016.3
20260506080508 44 341 0.0 2.0 0.00 0.00 0.00 56 1016.4
20260506073509 44 341 0.0 2.0 0.00 0.00 0.00 55 1016.0
20260506073007 44 341 0.0 1.0 0.00 0.00 0.00 55 1016.1
20260506072509 45 341 0.0 2.0 0.00 0.00 0.00 54 1016.1
20260506072008 45 341 0.0 2.0 0.00 0.00 0.00 52 1016.0
20260506071522 45 341 0.0 2.0 0.00 0.00 0.00 51 1016.0
20260506071003 45 341 0.0 3.0 0.00 0.00 0.00 52 1016.0
20260506070504 45 340 0.0 3.0 0.00 0.00 0.00 49 1016.1
20260506062505 46 341 0.0 2.0 0.00 0.01 0.00 47 1016.0
20260506062011 46 341 0.0 3.0 0.00 0.01 0.00 49 1016.0
20260506061508 46 341 0.0 4.0 0.00 0.01 0.00 46 1016.0
20260506061003 46 340 1.0 4.0 0.00 0.02 0.00 46 1016.0
20260506060506 46 344 0.0 3.0 0.00 0.02 0.00 48 1016.0
20260506051006 47 344 1.0 3.0 0.00 0.02 0.00 46 1015.6
20260506050502 47 340 0.0 2.0 0.00 0.02 0.00 47 1015.5
20260506045005 48 340 0.0 2.0 0.00 0.02 0.02 48 1015.2
20260506044510 48 340 0.0 2.0 0.00 0.02 0.02 48 1015.1
20260506044007 48 340 0.0 3.0 0.00 0.02 0.02 45 1015.1
20260506043509 48 340 0.0 3.0 0.00 0.02 0.02 45 1015.2
20260506043024 48 339 1.0 2.0 0.00 0.02 0.02 44 1015.2
20260506042503 48 339 0.0 2.0 0.00 0.02 0.02 46 1015.2
20260506042010 48 339 0.0 2.0 0.00 0.02 0.02 47 1015.1
20260506041518 48 339 0.0 3.0 0.00 0.02 0.02 47 1015.0
20260506041002 49 339 1.0 3.0 0.00 0.02 0.02 46 1015.0
20260506040505 49 350 0.0 3.0 0.00 0.02 0.02 45 1015.0
20260506040032 49 350 0.0 3.0 0.00 0.02 0.02 45 1015.0
20260506035506 49 350 0.0 3.0 0.00 0.02 0.02 43 1015.0
20260506035007 49 350 0.0 3.0 0.00 0.02 0.02 42 1015.1
20260506034515 49 350 1.0 4.0 0.00 0.02 0.02 42 1014.9
20260506034011 49 355 1.0 4.0 0.00 0.02 0.02 41 1014.9
20260506033506 50 342 1.0 4.0 0.00 0.02 0.02 42 1014.8
20260506033020 50 345 1.0 4.0 0.00 0.02 0.02 41 1014.7
20260506032508 50 346 1.0 4.0 0.00 0.02 0.02 41 1014.6
20260506032007 50 346 1.0 4.0 0.00 0.02 0.02 42 1014.5
20260506031516 50 338 1.0 3.0 0.00 0.02 0.02 42 1014.5
20260506031008 50 345 0.0 4.0 0.00 0.02 0.02 41 1014.4
20260506030510 50 349 1.0 4.0 0.00 0.02 0.02 40 1014.3
20260506030026 50 5 1.0 5.0 0.00 0.02 0.02 40 1014.3
20260506025506 50 333 1.0 5.0 0.00 0.02 0.02 40 1014.2
20260506025007 50 347 0.0 4.0 0.00 0.02 0.02 41 1014.2
20260506024517 50 350 0.0 8.0 0.00 0.02 0.02 40 1014.1
20260506024009 51 336 3.0 8.0 0.00 0.02 0.02 39 1014.1
20260506023508 51 342 2.0 7.0 0.00 0.02 0.02 39 1014.0
20260506023028 51 360 1.0 6.0 0.00 0.02 0.02 40 1014.0
20260506022505 51 301 2.0 6.0 0.00 0.02 0.02 40 1014.0
20260506022008 51 330 2.0 8.0 0.00 0.02 0.02 39 1014.0
20260506021531 51 311 2.0 8.0 0.00 0.02 0.02 39 1013.8
20260506021008 51 343 1.0 8.0 0.00 0.02 0.02 38 1013.7
20260506020507 51 318 2.0 9.0 0.00 0.02 0.02 38 1013.7
20260506020016 51 332 4.0 9.0 0.00 0.02 0.02 37 1013.7
20260506015510 51 326 4.0 9.0 0.00 0.02 0.02 38 1013.6
20260506015010 52 333 4.0 9.0 0.00 0.02 0.02 38 1013.6
20260506014519 52 338 3.0 6.0 0.00 0.02 0.02 38 1013.4
20260506014009 52 335 2.0 5.0 0.00 0.02 0.02 38 1013.3
20260506013508 52 355 2.0 8.0 0.00 0.02 0.02 38 1013.3
20260506013013 52 344 3.0 9.0 0.00 0.02 0.02 39 1013.2
20260506012507 52 326 3.0 9.0 0.00 0.02 0.02 38 1013.2
20260506012004 52 347 3.0 9.0 0.00 0.02 0.02 39 1013.2
20260506011521 52 302 2.0 9.0 0.00 0.02 0.02 38 1013.2
20260506011010 52 5 4.0 9.0 0.00 0.02 0.02 37 1013.1
20260506010511 52 322 4.0 13.0 0.00 0.02 0.02 38 1013.1
20260506010042 53 9 2.0 13.0 0.00 0.02 0.02 38 1013.1
20260506005506 53 349 6.0 13.0 0.00 0.02 0.02 37 1013.1
20260506005008 53 319 5.0 13.0 0.00 0.02 0.02 36 1013.1
20260506004526 53 360 4.0 12.0 0.00 0.02 0.02 37 1013.0
20260506004007 53 5 5.0 12.0 0.00 0.02 0.02 37 1013.0
20260506003506 53 5 4.0 11.0 0.00 0.02 0.02 37 1012.9
20260506003026 53 5 3.0 9.0 0.00 0.02 0.02 39 1012.9
20260506002510 53 315 2.0 9.0 0.00 0.02 0.02 39 1012.9
20260506002008 53 299 4.0 9.0 0.00 0.02 0.02 38 1012.9
20260506001520 53 337 2.0 10.0 0.00 0.02 0.02 38 1012.8
20260506001009 53 5 4.0 11.0 0.00 0.02 0.02 39 1012.8
20260506000510 54 340 2.0 11.0 0.00 0.02 0.02 38 1012.8
20260506000020 54 330 2.0 11.0 0.00 0.02 0.02 39 1012.7
20260505235510 54 337 3.0 11.0 0.00 0.02 0.02 37 1012.7
20260505235008 54 338 3.0 11.0 0.00 0.02 0.02 37 1012.7
20260505234539 54 315 4.0 11.0 0.00 0.02 0.02 38 1012.7
20260505234012 54 341 3.0 16.0 0.00 0.02 0.02 37 1012.7
20260505233505 54 313 7.0 16.0 0.00 0.02 0.02 37 1012.6
20260505233035 54 321 5.0 14.0 0.00 0.02 0.02 38 1012.6
20260505232511 55 355 4.0 11.0 0.00 0.02 0.02 38 1012.4
20260505232009 55 333 3.0 9.0 0.00 0.02 0.02 38 1012.5
20260505231531 55 346 3.0 9.0 0.00 0.02 0.02 37 1012.4
20260505231009 55 341 4.0 10.0 0.00 0.02 0.02 36 1012.3
20260505230505 56 320 4.0 10.0 0.00 0.02 0.02 38 1012.3
20260505230022 56 315 3.0 12.0 0.00 0.02 0.02 39 1012.3
20260505225510 56 313 4.0 12.0 0.00 0.02 0.02 39 1012.3
20260505225011 56 335 3.0 10.0 0.00 0.02 0.02 38 1012.2
20260505224523 56 329 3.0 9.0 0.00 0.02 0.02 37 1012.2
20260505224010 56 341 3.0 9.0 0.00 0.02 0.02 37 1012.2
20260505223519 57 16 4.0 9.0 0.00 0.02 0.02 36 1012.2
20260505223023 57 338 4.0 18.0 0.00 0.02 0.02 37 1012.2
20260505222513 56 336 5.0 18.0 0.00 0.02 0.02 36 1012.1
20260505222009 56 5 5.0 12.0 0.00 0.02 0.02 37 1012.1
20260505221523 56 307 5.0 12.0 0.00 0.02 0.02 37 1012.1
20260505221013 56 327 5.0 10.0 0.00 0.02 0.02 37 1012.1
20260505220508 57 318 6.0 10.0 0.00 0.02 0.02 38 1012.1
20260505220028 57 326 4.0 9.0 0.00 0.02 0.02 38 1012.0
20260505215509 57 306 4.0 8.0 0.00 0.02 0.02 39 1012.0
20260505215008 57 345 3.0 11.0 0.00 0.02 0.02 39 1012.1
20260505214544 57 319 5.0 11.0 0.00 0.02 0.02 39 1012.1
20260505214012 57 341 4.0 11.0 0.00 0.02 0.02 38 1012.1
20260505213509 57 276 4.0 11.0 0.00 0.02 0.02 37 1012.1
20260505213025 57 334 3.0 11.0 0.00 0.02 0.02 41 1012.2
20260505212515 57 311 3.0 11.0 0.00 0.02 0.02 40 1012.2
20260505212012 56 303 2.0 11.0 0.00 0.02 0.02 39 1012.3
20260505211526 56 315 5.0 14.0 0.00 0.02 0.02 38 1012.5
20260505211006 56 311 6.0 14.0 0.00 0.02 0.02 39 1012.5
20260505210507 57 277 5.0 12.0 0.00 0.02 0.02 39 1012.5
20260505210011 57 314 4.0 12.0 0.00 0.02 0.02 40 1012.5
20260505205506 57 300 3.0 10.0 0.00 0.02 0.02 41 1012.6
20260505205009 57 329 4.0 15.0 0.00 0.02 0.02 40 1012.6
20260505204509 57 332 4.0 15.0 0.00 0.02 0.02 40 1012.6
20260505204007 58 292 3.0 13.0 0.00 0.02 0.02 40 1012.7
20260505203508 58 338 7.0 13.0 0.00 0.02 0.02 37 1012.7
20260505203032 59 340 5.0 13.0 0.00 0.02 0.02 38 1012.6
20260505202506 59 301 3.0 10.0 0.00 0.02 0.02 37 1012.7
20260505202003 60 350 4.0 10.0 0.00 0.02 0.02 38 1012.7
20260505201515 59 355 2.0 10.0 0.00 0.02 0.02 38 1012.8
20260505201007 58 340 2.0 8.0 0.00 0.02 0.02 42 1012.8
20260505200503 59 285 2.0 8.0 0.00 0.02 0.02 38 1012.8
20260505200012 59 246 2.0 10.0 0.00 0.02 0.02 40 1012.7
20260505195508 59 312 3.0 11.0 0.00 0.02 0.02 42 1012.8
20260505195006 59 297 4.0 11.0 0.00 0.02 0.02 40 1012.8
20260505194514 58 306 3.0 9.0 0.00 0.02 0.02 39 1012.9
20260505194006 58 325 3.0 10.0 0.00 0.02 0.02 38 1012.9
20260505193506 58 9 4.0 10.0 0.00 0.02 0.02 41 1013.1
20260505193017 58 25 5.0 13.0 0.00 0.02 0.02 38 1013.1
20260505192506 58 339 4.0 13.0 0.00 0.02 0.02 40 1012.9
20260505192006 57 342 3.0 11.0 0.00 0.02 0.02 40 1013.0
20260505191517 57 315 4.0 11.0 0.00 0.02 0.02 40 1013.2
20260505191010 57 327 2.0 12.0 0.00 0.02 0.02 41 1013.2
20260505190505 57 319 4.0 12.0 0.00 0.02 0.02 40 1013.3
20260505190011 57 320 1.0 11.0 0.00 0.02 0.02 40 1013.3
20260505185506 56 346 3.0 11.0 0.00 0.02 0.02 41 1013.4